Weather History for KUBE - February, 2013

Change the Weather History Date:

Thursday, February 14, 2013

  Actual Average (KRPD) Record (KRPD)
Temperature  
Mean Temperature 21 °F -  
Max Temperature 30 °F 26 °F 44 °F (2002)
Min Temperature 10 °F 9 °F -14 °F (2015)
Degree Days  
Heating Degree Days 44    
Moisture  
Dew Point 16 °F    
Average Humidity 72    
Maximum Humidity 93    
Minimum Humidity 46    
Precipitation  
Precipitation 0.00 in - - ()
Sea Level Pressure  
Sea Level Pressure 29.83 in    
Wind  
Wind Speed 9 mph (NNW)    
Max Wind Speed 18 mph    
Max Gust Speed 23 mph    
Visibility 9 miles    
Events Snow    
Averages and records for this station are not official NWS values.
T = Trace of Precipitation, MM = Missing Value Source: NWS Daily Summary

Daily Weather History Graph

Daily Weather History Graph

Search for Another Location

Airport or City:

Trip Planner

Search our weather history database for the weather conditions in past years. The results will help you decide how hot, cold, wet, or windy it might be!

Date:

Astronomy

Feb. 14, 2013 Rise Set
Actual Time 7:10 AM CST 5:34 PM CST
Civil Twilight 6:40 AM CST 6:04 PM CST
Nautical Twilight 6:05 AM CST 6:39 PM CST
Astronomical Twilight 5:31 AM CST 7:13 PM CST
Moon 8:56 AM CST (2/14) 10:55 PM CST (2/14)
Length of Visible Light 11h 24m
Length of Day
10h 23m
Waxing Crescent, 22% of the Moon is Illuminated
Feb 14
Waxing Crescent
Feb 17
First Quarter
Feb 25
Full
Mar 4
Last Quarter
Mar 11
New

Hourly Weather History & Observations

Time (CST) Temp. Windchill Dew Point Humidity Pressure Visibility Wind Dir Wind Speed Gust Speed Precip Events Conditions
12:15 AM 30.2 °F 23.4 °F 28.4 °F 93% 29.58 in 2.0 mi NNE 6.9 mph - N/A Snow Light Snow
12:35 AM 30.2 °F 22.6 °F 28.4 °F 93% 29.58 in 1.5 mi NNE 8.1 mph - N/A Snow Light Snow
12:55 AM 30.2 °F 22.6 °F 28.4 °F 93% 29.58 in 1.8 mi NNE 8.1 mph - N/A   Overcast
1:15 AM 30.2 °F 21.9 °F 28.4 °F 93% 29.59 in 2.0 mi NNE 9.2 mph - N/A Snow Light Snow
1:35 AM 30.2 °F 21.3 °F 28.4 °F 93% 29.59 in 2.0 mi NNE 10.4 mph - N/A Snow Light Snow
1:55 AM 30.2 °F 19.8 °F 26.6 °F 86% 29.60 in 2.0 mi NNE 13.8 mph 18.4 mph N/A Snow Light Snow
2:15 AM 28.4 °F 19.7 °F 26.6 °F 93% 29.61 in 3.0 mi NNE 9.2 mph - N/A Snow Light Snow
2:35 AM 28.4 °F 16.6 °F 24.8 °F 86% 29.61 in 3.0 mi NNE 16.1 mph - N/A Snow Light Snow
2:55 AM 28.4 °F 19.7 °F 24.8 °F 86% 29.62 in 4.0 mi NE 9.2 mph - N/A Snow Light Snow
3:15 AM 28.4 °F 21.2 °F 24.8 °F 86% 29.62 in 10.0 mi NNE 6.9 mph - N/A   Overcast
3:35 AM 28.4 °F 22.2 °F 23.0 °F 80% 29.63 in 10.0 mi North 5.8 mph - N/A   Overcast
3:55 AM 28.4 °F 22.2 °F 23.0 °F 80% 29.63 in 10.0 mi North 5.8 mph - N/A   Overcast
4:15 AM 28.4 °F 20.4 °F 23.0 °F 80% 29.64 in 10.0 mi NNW 8.1 mph - N/A   Overcast
4:35 AM 28.4 °F 19.1 °F 23.0 °F 80% 29.65 in 10.0 mi North 10.4 mph - N/A   Overcast
4:55 AM 26.6 °F 17.5 °F 23.0 °F 86% 29.66 in 10.0 mi NNW 9.2 mph - N/A   Overcast
5:15 AM 26.6 °F 17.5 °F 23.0 °F 86% 29.67 in 10.0 mi NNW 9.2 mph - N/A   Scattered Clouds
5:35 AM 24.8 °F 16.1 °F 21.2 °F 86% 29.68 in 10.0 mi North 8.1 mph - N/A   Clear
5:55 AM 23.0 °F 13.9 °F 21.2 °F 93% 29.69 in 10.0 mi NNW 8.1 mph - N/A   Scattered Clouds
6:15 AM 24.8 °F 16.9 °F 21.2 °F 86% 29.69 in 10.0 mi NNW 6.9 mph - N/A   Mostly Cloudy
6:35 AM 23.0 °F 14.7 °F 21.2 °F 93% 29.70 in 10.0 mi NNW 6.9 mph - N/A   Mostly Cloudy
6:55 AM 23.0 °F 17.0 °F 21.2 °F 93% 29.71 in 10.0 mi NW 4.6 mph - N/A   Overcast
7:15 AM 24.8 °F 19.1 °F 23.0 °F 93% 29.72 in 10.0 mi NW 4.6 mph - N/A   Overcast
7:35 AM 26.6 °F 21.2 °F 23.0 °F 86% 29.73 in 10.0 mi NW 4.6 mph - N/A Snow Light Snow
7:55 AM 26.6 °F 21.2 °F 23.0 °F 86% 29.74 in 7.0 mi NW 4.6 mph - N/A Snow Light Snow
8:15 AM 26.6 °F 20.0 °F 23.0 °F 86% 29.75 in 7.0 mi NNW 5.8 mph - N/A Snow Light Snow
8:35 AM 26.6 °F 21.2 °F 23.0 °F 86% 29.75 in 7.0 mi NW 4.6 mph - N/A Snow Light Snow
8:55 AM 26.6 °F 20.0 °F 23.0 °F 86% 29.75 in 10.0 mi NW 5.8 mph - N/A Snow Light Snow
9:15 AM 26.6 °F 18.2 °F 23.0 °F 86% 29.76 in 10.0 mi NW 8.1 mph - N/A   Overcast
9:35 AM 28.4 °F 21.2 °F 23.0 °F 80% 29.77 in 10.0 mi NNW 6.9 mph - N/A   Overcast
9:55 AM 28.4 °F 22.2 °F 23.0 °F 80% 29.78 in 10.0 mi NNW 5.8 mph - N/A   Overcast
10:15 AM 28.4 °F 19.1 °F 23.0 °F 80% 29.78 in 10.0 mi NNW 10.4 mph - N/A   Overcast
10:35 AM 30.2 °F 24.3 °F 23.0 °F 75% 29.78 in 10.0 mi NNW 5.8 mph - N/A   Overcast
10:55 AM 30.2 °F 21.3 °F 23.0 °F 75% 29.79 in 10.0 mi North 10.4 mph - N/A   Overcast
11:15 AM 30.2 °F 21.9 °F 21.2 °F 69% 29.79 in 10.0 mi North 9.2 mph - N/A   Overcast
11:35 AM 30.2 °F 20.8 °F 23.0 °F 75% 29.80 in 10.0 mi NNW 11.5 mph - N/A   Overcast
11:55 AM 30.2 °F 22.6 °F 23.0 °F 75% 29.81 in 10.0 mi NNW 8.1 mph - N/A   Overcast
12:15 PM 30.2 °F 20.8 °F 23.0 °F 75% 29.80 in 10.0 mi NNW 11.5 mph - N/A   Overcast
12:35 PM 28.4 °F 18.0 °F 23.0 °F 80% 29.81 in 10.0 mi North 12.7 mph - N/A   Overcast
12:55 PM 28.4 °F 18.0 °F 23.0 °F 80% 29.82 in 10.0 mi North 12.7 mph - N/A   Overcast
1:15 PM 26.6 °F 15.2 °F 21.2 °F 80% 29.82 in 10.0 mi NNW 13.8 mph - N/A   Overcast
1:35 PM 26.6 °F 16.8 °F 21.2 °F 80% 29.83 in 10.0 mi NNW 10.4 mph - N/A   Overcast
1:55 PM 28.4 °F 19.7 °F 19.4 °F 69% 29.83 in 10.0 mi NNW 9.2 mph - N/A   Overcast
2:15 PM 28.4 °F 19.7 °F 19.4 °F 69% 29.84 in 10.0 mi NNW 9.2 mph - N/A   Overcast
2:35 PM 28.4 °F 19.7 °F 19.4 °F 69% 29.85 in 10.0 mi NNW 9.2 mph - N/A   Overcast
2:55 PM 28.4 °F 17.0 °F 14.0 °F 55% 29.85 in 10.0 mi NNW 15.0 mph - N/A   Overcast
3:15 PM 26.6 °F 13.8 °F 14.0 °F 59% 29.87 in 10.0 mi NNW 17.3 mph - N/A   Overcast
3:35 PM 26.6 °F 15.7 °F 12.2 °F 55% 29.88 in 10.0 mi NW 12.7 mph - N/A   Scattered Clouds
3:55 PM 26.6 °F 14.3 °F 10.4 °F 51% 29.89 in 10.0 mi NNW 16.1 mph - N/A   Clear
4:15 PM 24.8 °F 12.9 °F 10.4 °F 54% 29.91 in 10.0 mi NNW 13.8 mph - N/A   Clear
4:35 PM 23.0 °F 8.7 °F 6.8 °F 50% 29.92 in 10.0 mi North 18.4 mph 23.0 mph N/A   Clear
4:55 PM 23.0 °F 10.6 °F 6.8 °F 50% 29.94 in 10.0 mi North 13.8 mph - N/A   Clear
5:15 PM 21.2 °F 8.9 °F 5.0 °F 50% 29.95 in 10.0 mi NNW 12.7 mph - N/A   Clear
5:35 PM 21.2 °F 8.9 °F 3.2 °F 46% 29.96 in 10.0 mi North 12.7 mph 18.4 mph N/A   Clear
5:55 PM 19.4 °F 6.6 °F 3.2 °F 49% 29.98 in 10.0 mi North 12.7 mph - N/A   Clear
6:15 PM 19.4 °F 7.2 °F 3.2 °F 49% 29.99 in 10.0 mi North 11.5 mph - N/A   Clear
6:35 PM 17.6 °F 5.0 °F 3.2 °F 53% 30.00 in 10.0 mi NNW 11.5 mph - N/A   Mostly Cloudy
6:55 PM 17.6 °F 5.7 °F 3.2 °F 53% 30.01 in 10.0 mi North 10.4 mph - N/A   Scattered Clouds
7:15 PM 17.6 °F 5.0 °F 3.2 °F 53% 30.02 in 10.0 mi NNW 11.5 mph - N/A   Clear
7:35 PM 15.8 °F 4.2 °F 3.2 °F 58% 30.02 in 10.0 mi NNW 9.2 mph - N/A   Clear
7:55 PM 17.6 °F 4.3 °F 1.4 °F 49% 30.03 in 10.0 mi NNW 12.7 mph - N/A   Clear
8:15 PM 17.6 °F 5.0 °F 1.4 °F 49% 30.03 in 10.0 mi NNW 11.5 mph - N/A   Clear
8:35 PM 15.8 °F 3.4 °F 1.4 °F 53% 30.04 in 10.0 mi NNW 10.4 mph - N/A   Clear
8:55 PM 14.0 °F 2.0 °F 1.4 °F 57% 30.05 in 10.0 mi NNW 9.2 mph - N/A   Clear
9:15 PM 14.0 °F 2.0 °F 1.4 °F 57% 30.05 in 10.0 mi NNW 9.2 mph - N/A   Clear
9:35 PM 14.0 °F 0.5 °F 1.4 °F 57% 30.06 in 10.0 mi NNW 11.5 mph - N/A   Clear
9:55 PM 14.0 °F 0.5 °F 1.4 °F 57% 30.07 in 10.0 mi NNW 11.5 mph - N/A   Clear
10:15 PM 14.0 °F 2.0 °F 1.4 °F 57% 30.08 in 10.0 mi NW 9.2 mph - N/A   Clear
10:35 PM 14.0 °F 3.9 °F -0.4 °F 53% 30.08 in 10.0 mi NW 6.9 mph - N/A   Clear
10:55 PM 12.2 °F 2.9 °F -0.4 °F 57% 30.08 in 10.0 mi NW 5.8 mph - N/A   Clear
11:15 PM 12.2 °F 1.7 °F -0.4 °F 57% 30.08 in 10.0 mi NW 6.9 mph - N/A   Clear
11:35 PM 12.2 °F 2.9 °F -0.4 °F 57% 30.08 in 10.0 mi NW 5.8 mph - N/A   Scattered Clouds
11:55 PM 10.4 °F -0.4 °F -0.4 °F 62% 30.09 in 10.0 mi NW 6.9 mph - N/A   Clear